Location: Stake Lake Observatory
(50.5113°N, 120.4813°W)
Time: 06:19:16
(UTC-07:00)

ISS - Pass Details

Date: 23 May 2022
Orbit: 414 x 420 km, 51.6° (Epoch: 28 June)

Event Time Altitude Azimuth Distance (km) Brightness Sun altitude
Rises 21:49:14 0° 279° (W) 2,368 1.0 -7.4°
Reaches altitude 10° 21:51:21 10° 281° (W) 1,501 0.0 -7.6°
Maximum altitude 21:54:43 76° 8° (N) 435 -3.6 -8.0°
Drops below altitude 10° 21:58:04 10° 95° (E) 1,494 -1.4 -8.4°
Enters shadow 21:58:58 - 96° (E) 1,858 -0.9 -8.5°
